Weather History for Fort Drum, NY

Change the Weather History Date:

Thursday, February 21, 2013

  Actual Average Record
Temperature  
Mean Temperature 13 °F -  
Max Temperature 21 °F 29 °F 59 °F (1997)
Min Temperature 5 °F 11 °F -3 °F (2008)
Degree Days  
Heating Degree Days 52    
Moisture  
Dew Point 7 °F    
Average Humidity 80    
Maximum Humidity 93    
Minimum Humidity 62    
Precipitation  
Precipitation 0.00 in - - ()
Sea Level Pressure  
Sea Level Pressure 30.09 in    
Wind  
Wind Speed 9 mph (WNW)    
Max Wind Speed 15 mph    
Max Gust Speed 21 mph    
Visibility 7 miles    
Events Snow    
Averages and records for this station are not official NWS values.
T = Trace of Precipitation, MM = Missing Value Source: NWS Daily Summary

Daily Weather History Graph

Daily Weather History Graph

Search for Another Location

Airport:

Trip Planner

Search our weather history database for the weather conditions in past years. The results will help you decide how hot, cold, wet, or windy it might be!

Date:

Astronomy

Feb. 21, 2013 Rise Set
Actual Time 6:52 AM EST 5:40 PM EST
Civil Twilight 6:23 AM EST 6:10 PM EST
Nautical Twilight 5:49 AM EST 6:43 PM EST
Astronomical Twilight 5:16 AM EST 7:17 PM EST
Moon 1:48 PM EST (2/21) 4:01 AM EST (2/21)
Length of Visible Light 11h 46m
Length of Day
10h 48m
Waxing Gibbous, 83% of the Moon is Illuminated
Feb 21
Waxing Gibbous
Feb 25
Full
Mar 4
Last Quarter
Mar 11
New
Mar 19
First Quarter

Hourly Weather History & Observations

Time (EST) Temp. Windchill Dew Point Humidity Pressure Visibility Wind Dir Wind Speed Gust Speed Precip Events Conditions
12:07 AM 15.8 °F 1.4 °F 12.2 °F 86% 29.94 in 4.0 mi West 13.8 mph 20.7 mph N/A Snow Light Snow
12:23 AM 15.8 °F 2.7 °F 12.2 °F 86% 29.95 in 4.0 mi West 11.5 mph 19.6 mph N/A Snow Light Snow
12:25 AM 15.8 °F 2.7 °F 12.2 °F 86% 29.95 in 4.0 mi West 11.5 mph 19.6 mph N/A Snow Light Snow
12:37 AM 15.8 °F 2.7 °F 12.2 °F 86% 29.95 in 3.0 mi West 11.5 mph 18.4 mph N/A Snow Light Snow
12:55 AM 14.9 °F 4.0 °F 12.2 °F 89% 29.95 in 4.0 mi West 8.1 mph 18.4 mph 0.00 in Snow Light Snow
12:59 AM 14.0 °F 2.0 °F 12.2 °F 93% 29.95 in 4.0 mi West 9.2 mph - N/A Snow Light Snow
1:09 AM 14.0 °F 1.2 °F 12.2 °F 93% 29.96 in 3.0 mi West 10.4 mph - N/A Snow Light Snow
1:11 AM 14.0 °F 0.5 °F 12.2 °F 93% 29.95 in 2.5 mi West 11.5 mph 17.3 mph N/A Snow Light Snow
1:23 AM 14.0 °F 2.0 °F 12.2 °F 93% 29.95 in 3.0 mi West 9.2 mph - N/A Snow Light Snow
1:29 AM 14.0 °F 1.2 °F 12.2 °F 93% 29.95 in 4.0 mi West 10.4 mph - N/A Snow Light Snow
1:50 AM 14.0 °F 0.5 °F 12.2 °F 93% 29.96 in 2.5 mi West 11.5 mph - N/A Snow Light Snow
1:53 AM 14.0 °F 2.0 °F 12.2 °F 93% 29.96 in 2.0 mi West 9.2 mph - N/A Snow Light Snow
1:55 AM 14.2 °F 1.4 °F 11.5 °F 89% 29.96 in 2.0 mi West 10.4 mph - 0.00 in Snow Light Snow
2:00 AM 14.0 °F 2.0 °F 12.2 °F 93% 29.95 in 2.5 mi West 9.2 mph - N/A Snow Light Snow
2:02 AM 14.0 °F 1.2 °F 12.2 °F 93% 29.95 in 2.5 mi West 10.4 mph - N/A Snow Light Snow
2:04 AM 14.0 °F 1.2 °F 12.2 °F 93% 29.95 in 2.5 mi West 10.4 mph - N/A Snow Light Snow
2:05 AM 14.0 °F 0.5 °F 12.2 °F 93% 29.95 in 2.5 mi West 11.5 mph - N/A Snow Light Snow
2:07 AM 14.0 °F 2.0 °F 12.2 °F 93% 29.95 in 3.0 mi West 9.2 mph - N/A Snow Light Snow
2:19 AM 14.0 °F 2.9 °F 12.2 °F 93% 29.96 in 2.5 mi West 8.1 mph - N/A Snow Light Snow
2:21 AM 14.0 °F 2.9 °F 12.2 °F 93% 29.96 in 2.5 mi West 8.1 mph - N/A Snow Light Snow
2:23 AM 14.0 °F 2.0 °F 12.2 °F 93% 29.96 in 2.0 mi West 9.2 mph - N/A Snow Light Snow
2:30 AM 14.0 °F 2.0 °F 12.2 °F 93% 29.96 in 1.8 mi West 9.2 mph - N/A Snow Light Snow
2:35 AM 14.0 °F 2.0 °F 12.2 °F 93% 29.96 in 1.2 mi WNW 9.2 mph - N/A Snow Light Snow
2:38 AM 14.0 °F 0.5 °F 12.2 °F 93% 29.96 in 1.0 mi WNW 11.5 mph - N/A Snow Light Snow
2:39 AM 14.0 °F 0.5 °F 12.2 °F 93% 29.96 in 1.0 mi WNW 11.5 mph - N/A Snow Light Snow
2:41 AM 14.0 °F 2.9 °F 12.2 °F 93% 29.96 in 1.0 mi NW 8.1 mph - N/A Snow Light Snow
2:42 AM 14.0 °F 5.1 °F 12.2 °F 93% 29.96 in 1.0 mi NNW 5.8 mph - N/A Snow Light Snow
2:43 AM 14.0 °F 5.1 °F 12.2 °F 93% 29.96 in 1.0 mi NNW 5.8 mph - N/A Snow Light Snow
2:47 AM 12.2 °F -0.2 °F 10.4 °F 92% 29.96 in 1.2 mi NNW 9.2 mph - N/A Snow Light Snow
2:51 AM 12.2 °F 1.7 °F 10.4 °F 92% 29.96 in 1.5 mi NNW 6.9 mph - N/A Snow Light Snow
2:55 AM 12.6 °F 0.2 °F 10.4 °F 91% 29.96 in 1.8 mi NW 9.2 mph - 0.00 in Snow Light Snow
2:56 AM 12.2 °F -1.8 °F 10.4 °F 92% 29.96 in 2.0 mi NW 11.5 mph - N/A Snow Light Snow
2:59 AM 12.2 °F -0.2 °F 10.4 °F 92% 29.96 in 2.5 mi NW 9.2 mph - N/A Snow Light Snow
3:00 AM 12.2 °F 0.7 °F 10.4 °F 92% 29.97 in 2.5 mi NW 8.1 mph - N/A Snow Light Snow
3:02 AM 12.2 °F -0.2 °F 10.4 °F 92% 29.97 in 3.0 mi NW 9.2 mph - N/A Snow Light Snow
3:06 AM 12.2 °F 0.7 °F 8.6 °F 85% 29.97 in 4.0 mi NW 8.1 mph - N/A Snow Light Snow
3:08 AM 12.2 °F 2.9 °F 8.6 °F 85% 29.97 in 4.0 mi NW 5.8 mph - N/A Snow Light Snow
3:11 AM 12.2 °F -3.7 °F 8.6 °F 85% 29.98 in 2.5 mi NNW 15.0 mph - N/A Snow Light Snow
3:13 AM 12.2 °F -3.1 °F 8.6 °F 85% 29.98 in 2.0 mi NNW 13.8 mph 18.4 mph N/A Snow Light Snow
3:15 AM 10.4 °F -3.3 °F 8.6 °F 92% 29.98 in 2.0 mi NNW 10.4 mph 18.4 mph N/A Snow Light Snow
3:17 AM 10.4 °F -3.3 °F 8.6 °F 92% 29.98 in 1.8 mi NNW 10.4 mph 18.4 mph N/A Snow Light Snow
3:30 AM 8.6 °F -4.7 °F 6.8 °F 92% 29.99 in 2.0 mi North 9.2 mph - N/A Snow Light Snow
3:32 AM 8.6 °F -4.7 °F 5.0 °F 85% 29.99 in 2.0 mi North 9.2 mph - N/A Snow Light Snow
3:34 AM 8.6 °F -3.7 °F 5.0 °F 85% 29.99 in 2.5 mi North 8.1 mph - N/A Snow Light Snow
3:39 AM 8.6 °F -4.7 °F 5.0 °F 85% 29.99 in 3.0 mi North 9.2 mph - N/A Snow Light Snow
3:40 AM 8.6 °F -4.7 °F 5.0 °F 85% 29.99 in 3.0 mi North 9.2 mph - N/A Snow Light Snow
3:50 AM 8.6 °F -3.7 °F 5.0 °F 85% 30.00 in 4.0 mi North 8.1 mph - N/A Snow Light Snow
3:52 AM 8.6 °F -3.7 °F 5.0 °F 85% 30.00 in 4.0 mi North 8.1 mph - N/A Snow Light Snow
3:53 AM 8.6 °F -2.6 °F 5.0 °F 85% 30.00 in 4.0 mi NNW 6.9 mph - N/A Snow Light Snow
3:55 AM 7.9 °F -4.6 °F 4.8 °F 87% 30.00 in 5.0 mi North 8.1 mph - 0.00 in Snow Light Snow
4:55 AM 7.0 °F -3.3 °F 3.2 °F 84% 30.02 in 10.0 mi North 5.8 mph - 0.00 in Snow Light Snow
4:56 AM 6.8 °F -3.5 °F 3.2 °F 85% 30.02 in 10.0 mi NNW 5.8 mph - N/A Snow Light Snow
5:05 AM 6.8 °F -3.5 °F 3.2 °F 85% 30.03 in 10.0 mi North 5.8 mph - N/A   Overcast
5:54 AM 6.8 °F -5.9 °F 3.2 °F 85% 30.05 in 10.0 mi NNW 8.1 mph 17.3 mph N/A   Overcast
5:55 AM 7.2 °F -4.3 °F 2.1 °F 80% 30.05 in 10.0 mi NNW 6.9 mph 17.3 mph 0.00 in   Overcast
6:33 AM 6.8 °F -3.5 °F -0.4 °F 72% 30.07 in 10.0 mi NW 5.8 mph - N/A   Overcast
6:55 AM 5.4 °F -3.6 °F -0.6 °F 76% 30.08 in 10.0 mi Variable 4.6 mph - N/A   Overcast
7:19 AM 5.0 °F -6.9 °F -2.2 °F 72% 30.09 in 10.0 mi WNW 6.9 mph - N/A Snow Light Snow
7:25 AM 5.0 °F -5.6 °F -2.2 °F 72% 30.10 in 10.0 mi NW 5.8 mph - N/A   Overcast
7:41 AM 5.0 °F -6.9 °F -2.2 °F 72% 30.11 in 10.0 mi WNW 6.9 mph - N/A Snow Light Snow
7:55 AM 5.4 °F -3.6 °F -2.0 °F 72% 30.12 in 10.0 mi WNW 4.6 mph - 0.00 in Snow Light Snow
8:04 AM 5.0 °F -5.6 °F -2.2 °F 72% 30.12 in 10.0 mi Variable 5.8 mph - N/A   Mostly Cloudy
8:13 AM 5.0 °F -8.1 °F -2.2 °F 72% 30.12 in 10.0 mi West 8.1 mph - N/A   Overcast
8:55 AM 10.4 °F -3.3 °F 8.6 °F 92% 30.07 in 6.0 mi WNW 10.4 mph - N/A Snow Light Snow
9:15 AM 6.8 °F -6.9 °F -0.4 °F 72% 30.09 in 6.0 mi NW 9.2 mph - N/A Snow Light Snow
9:55 AM 8.4 °F -4.9 °F 0.3 °F 70% 30.10 in 10.0 mi WNW 9.2 mph - 0.00 in Snow Light Snow
9:56 AM 8.6 °F -2.6 °F -0.4 °F 67% 30.10 in 10.0 mi WNW 6.9 mph - N/A Snow Light Snow
9:59 AM 8.6 °F -3.7 °F -0.4 °F 67% 30.11 in 10.0 mi NW 8.1 mph - N/A Snow Light Snow
10:00 AM 8.6 °F -2.6 °F -0.4 °F 67% 30.11 in 10.0 mi NW 6.9 mph - N/A Snow Light Snow
10:02 AM 8.6 °F -3.7 °F -0.4 °F 67% 30.11 in 10.0 mi WNW 8.1 mph - N/A Snow Light Snow
10:04 AM 8.6 °F -2.6 °F -0.4 °F 67% 30.11 in 10.0 mi Variable 6.9 mph - N/A Snow Light Snow
10:07 AM 8.6 °F -4.7 °F -0.4 °F 67% 30.11 in 10.0 mi WNW 9.2 mph - N/A Snow Light Snow
10:40 AM 10.4 °F -0.4 °F 1.4 °F 67% 30.12 in 10.0 mi WSW 6.9 mph - N/A Snow Light Snow
10:41 AM 10.4 °F -1.5 °F 1.4 °F 67% 30.12 in 10.0 mi West 8.1 mph - N/A Snow Light Snow
10:43 AM 10.4 °F -2.4 °F 1.4 °F 67% 30.12 in 10.0 mi West 9.2 mph - N/A Snow Light Snow
10:45 AM 10.4 °F -1.5 °F 1.4 °F 67% 30.12 in 10.0 mi West 8.1 mph - N/A Snow Light Snow
10:47 AM 10.4 °F -1.5 °F 1.4 °F 67% 30.12 in 10.0 mi West 8.1 mph - N/A Snow Light Snow
10:55 AM 10.6 °F -2.2 °F 1.0 °F 65% 30.12 in 10.0 mi West 9.2 mph - 0.00 in Snow Light Snow
11:01 AM 10.4 °F -0.4 °F 1.4 °F 67% 30.13 in 10.0 mi West 6.9 mph - N/A Snow Light Snow
11:19 AM 10.4 °F -2.4 °F 1.4 °F 67% 30.13 in 10.0 mi WNW 9.2 mph - N/A   Overcast
11:48 AM 10.4 °F -3.3 °F 1.4 °F 67% 30.14 in 10.0 mi WSW 10.4 mph - N/A   Overcast
11:51 AM 10.4 °F -1.5 °F 1.4 °F 67% 30.15 in 10.0 mi WNW 8.1 mph - N/A   Overcast
11:55 AM 11.1 °F -0.6 °F 1.8 °F 66% 30.15 in 10.0 mi WNW 8.1 mph - 0.00 in   Overcast
12:11 PM 12.2 °F -1.0 °F 1.4 °F 62% 30.15 in 10.0 mi WNW 10.4 mph - N/A Snow Light Snow
12:19 PM 12.2 °F -0.2 °F 3.2 °F 67% 30.15 in 10.0 mi West 9.2 mph - N/A   Overcast
12:55 PM 12.9 °F 1.6 °F 3.6 °F 66% 30.15 in 10.0 mi West 8.1 mph - 0.00 in   Overcast
12:56 PM 12.2 °F 1.7 °F 3.2 °F 67% 30.15 in 10.0 mi West 6.9 mph - N/A Snow Light Snow
1:28 PM 14.0 °F 5.1 °F 5.0 °F 67% 30.15 in 10.0 mi Variable 5.8 mph - N/A Snow Light Snow
1:47 PM 14.0 °F 5.1 °F 5.0 °F 67% 30.16 in 10.0 mi Variable 5.8 mph - N/A   Overcast
1:55 PM 13.8 °F 4.9 °F 4.5 °F 66% 30.16 in 10.0 mi West 5.8 mph - 0.00 in   Overcast
2:27 PM 14.0 °F 5.1 °F 5.0 °F 67% 30.17 in 10.0 mi WNW 5.8 mph - N/A Snow Light Snow
2:45 PM 14.0 °F 3.9 °F 5.0 °F 67% 30.18 in 7.0 mi West 6.9 mph - N/A Snow Light Snow
2:52 PM 15.8 °F 7.2 °F 5.0 °F 62% 30.18 in 10.0 mi Variable 5.8 mph - N/A Snow Light Snow
2:55 PM 15.4 °F 4.6 °F 6.1 °F 67% 30.18 in 10.0 mi West 8.1 mph - 0.00 in Snow Light Snow
3:03 PM 15.8 °F 6.1 °F 6.8 °F 68% 30.18 in 10.0 mi NW 6.9 mph - N/A Snow Light Snow
3:17 PM 15.8 °F 8.6 °F 6.8 °F 68% 30.19 in 10.0 mi West 4.6 mph - N/A   Overcast
3:18 PM 15.8 °F 6.1 °F 6.8 °F 68% 30.19 in 10.0 mi West 6.9 mph - N/A Snow Light Snow
3:21 PM 15.8 °F 6.1 °F 6.8 °F 68% 30.19 in 10.0 mi West 6.9 mph - N/A   Overcast
3:55 PM 15.4 °F 6.8 °F 6.4 °F 68% 30.20 in 10.0 mi West 5.8 mph - 0.00 in   Overcast
4:55 PM 15.8 °F 6.1 °F 7.0 °F 68% 30.23 in 10.0 mi SW 6.9 mph - N/A   Overcast
5:55 PM 15.6 °F 7.0 °F 8.8 °F 74% 30.25 in 10.0 mi WSW 5.8 mph - N/A   Overcast
6:31 PM 15.8 °F 6.1 °F 8.6 °F 73% 30.26 in 10.0 mi WSW 6.9 mph - N/A   Overcast
6:49 PM 15.8 °F 5.1 °F 8.6 °F 73% 30.26 in 10.0 mi SW 8.1 mph - N/A   Overcast
6:55 PM 16.0 °F 7.4 °F 9.5 °F 76% 30.26 in 10.0 mi SW 5.8 mph - N/A   Overcast
7:11 PM 15.8 °F 10.2 °F 10.4 °F 79% 30.26 in 10.0 mi WSW 3.5 mph - N/A   Overcast
7:55 PM 17.2 °F 6.8 °F 10.9 °F 76% 30.29 in 10.0 mi WSW 8.1 mph - N/A   Overcast
8:07 PM 17.6 °F 6.4 °F 12.2 °F 79% 30.31 in 10.0 mi WSW 9.2 mph - N/A   Overcast
8:55 PM 19.0 °F 8.2 °F 14.7 °F 83% 30.34 in 10.0 mi WSW 9.2 mph - N/A   Overcast
9:55 PM 21.2 °F 12.6 °F 16.7 °F 83% 30.43 in 10.0 mi West 6.9 mph - N/A   Overcast
10:00 PM 21.2 °F 13.6 °F 17.6 °F 86% 30.42 in 10.0 mi Variable 5.8 mph - N/A Snow Light Snow
10:15 PM 21.2 °F 14.9 °F 17.6 °F 86% 30.42 in 10.0 mi West 4.6 mph - N/A   Overcast
10:40 PM 21.2 °F 14.9 °F 17.6 °F 86% 30.43 in 10.0 mi WSW 4.6 mph - N/A   Overcast
10:55 PM 21.6 °F - 17.2 °F 83% 30.43 in 10.0 mi Calm Calm - 0.00 in   Overcast
11:08 PM 21.2 °F - 17.6 °F 86% 30.42 in 10.0 mi Calm Calm - N/A   Scattered Clouds
11:12 PM 21.2 °F - 15.8 °F 80% 30.42 in 10.0 mi Calm Calm - N/A   Mostly Cloudy
11:23 PM 19.4 °F 14.3 °F 15.8 °F 86% 30.42 in 10.0 mi ENE 3.5 mph - N/A   Scattered Clouds
11:55 PM 16.9 °F 11.5 °F 13.6 °F 87% 30.41 in 10.0 mi NE 3.5 mph - N/A   Scattered Clouds
11:57 PM 17.6 °F 12.3 °F 14.0 °F 86% 30.41 in 10.0 mi NE 3.5 mph - N/A   Mostly Cloudy